owner,sensor,date,latitude,longitude,air_temperature,qcFlag 
DISL,ioos:station:DISL:KATA:1,2013-01-01T00:00:00Z,30.2583,-88.2131,11.9,11111222 
DISL,ioos:station:DISL:KATA:1,2013-01-01T00:30:00Z,30.2583,-88.2131,12.1,11111222 
DISL,ioos:station:DISL:KATA:1,2013-01-01T01:00:00Z,30.2583,-88.2131,12.2,11111222 
DISL,ioos:station:DISL:KATA:1,2013-01-01T01:30:00Z,30.2583,-88.2131,12.0,11111222 
DISL,ioos:station:DISL:KATA:1,2013-01-01T02:00:00Z,30.2583,-88.2131,12.0,11111222 
DISL,ioos:station:DISL:KATA:1,2013-01-01T02:30:00Z,30.2583,-88.2131,12.2,11111222 
DISL,ioos:station:DISL:KATA:1,2013-01-01T03:00:00Z,30.2583,-88.2131,11.8,11111222 
DISL,ioos:station:DISL:KATA:1,2013-01-01T03:30:00Z,30.2583,-88.2131,12.3,11111222 
DISL,ioos:station:DISL:KATA:1,2013-01-01T04:00:00Z,30.2583,-88.2131,13.0,11111222 
DISL,ioos:station:DISL:KATA:1,2013-01-01T04:30:00Z,30.2583,-88.2131,13.8,11111222 
DISL,ioos:station:DISL:KATA:1,2013-01-01T05:00:00Z,30.2583,-88.2131,14.1,11111222 
DISL,ioos:station:DISL:KATA:1,2013-01-01T05:30:00Z,30.2583,-88.2131,14.0,11111222 
DISL,ioos:station:DISL:KATA:1,2013-01-01T06:00:00Z,30.2583,-88.2131,13.9,11111222 
DISL,ioos:station:DISL:KATA:1,2013-01-01T06:30:00Z,30.2583,-88.2131,14.23,1111122 
DISL,ioos:station:DISL:KATA:1,2013-01-01T07:00:00Z,30.2583,-88.2131,14.9,1111122 
DISL,ioos:station:DISL:KATA:1,2013-01-01T07:30:00Z,30.2583,-88.2131,15.21,1111122 
DISL,ioos:station:DISL:KATA:1,2013-01-01T08:00:00Z,30.2583,-88.2131,15.51,1111122 
DISL,ioos:station:DISL:KATA:1,2013-01-01T08:30:00Z,30.2583,-88.2131,16.12,1111122 
DISL,ioos:station:DISL:KATA:1,2013-01-01T09:00:00Z,30.2583,-88.2131,16.22,1111122 
DISL,ioos:station:DISL:KATA:1,2013-01-01T09:30:00Z,30.2583,-88.2131,16.46,1111122 
DISL,ioos:station:DISL:KATA:1,2013-01-01T10:00:00Z,30.2583,-88.2131,16.56,1111122 
DISL,ioos:station:DISL:KATA:1,2013-01-01T10:30:00Z,30.2583,-88.2131,16.52,1111122 
DISL,ioos:station:DISL:KATA:1,2013-01-01T11:00:00Z,30.2583,-88.2131,16.58,1111122 
DISL,ioos:station:DISL:KATA:1,2013-01-01T11:30:00Z,30.2583,-88.2131,16.58,1111122 
DISL,ioos:station:DISL:KATA:1,2013-01-01T12:00:00Z,30.2583,-88.2131,16.96,1111122 
DISL,ioos:station:DISL:KATA:1,2013-01-01T12:30:00Z,30.2583,-88.2131,16.55,1111122 
DISL,ioos:station:DISL:KATA:1,2013-01-01T13:00:00Z,30.2583,-88.2131,16.45,1111122 
DISL,ioos:station:DISL:KATA:1,2013-01-01T13:30:00Z,30.2583,-88.2131,16.82,1111122 
DISL,ioos:station:DISL:KATA:1,2013-01-01T14:00:00Z,30.2583,-88.2131,16.58,1111122 
DISL,ioos:station:DISL:KATA:1,2013-01-01T14:30:00Z,30.2583,-88.2131,16.34,1111122 
DISL,ioos:station:DISL:KATA:1,2013-01-01T15:00:00Z,30.2583,-88.2131,16.51,1111122 
DISL,ioos:station:DISL:KATA:1,2013-01-01T15:30:00Z,30.2583,-88.2131,16.6,1111122 
DISL,ioos:station:DISL:KATA:1,2013-01-01T16:00:00Z,30.2583,-88.2131,16.16,1111122 
DISL,ioos:station:DISL:KATA:1,2013-01-01T16:30:00Z,30.2583,-88.2131,16.1,1111122 
DISL,ioos:station:DISL:KATA:1,2013-01-01T17:00:00Z,30.2583,-88.2131,16.44,1111122 
DISL,ioos:station:DISL:KATA:1,2013-01-01T17:30:00Z,30.2583,-88.2131,16.88,1111122 
DISL,ioos:station:DISL:KATA:1,2013-01-01T18:00:00Z,30.2583,-88.2131,17.07,1111122 
DISL,ioos:station:DISL:KATA:1,2013-01-01T18:30:00Z,30.2583,-88.2131,17.14,1111122 
DISL,ioos:station:DISL:KATA:1,2013-01-01T19:00:00Z,30.2583,-88.2131,17.14,1111122 
DISL,ioos:station:DISL:KATA:1,2013-01-01T19:30:00Z,30.2583,-88.2131,17.1,1111122 
DISL,ioos:station:DISL:KATA:1,2013-01-01T20:00:00Z,30.2583,-88.2131,16.97,1111122 
DISL,ioos:station:DISL:KATA:1,2013-01-01T20:30:00Z,30.2583,-88.2131,17.24,1111122 
DISL,ioos:station:DISL:KATA:1,2013-01-01T21:00:00Z,30.2583,-88.2131,17.24,1111122 
DISL,ioos:station:DISL:KATA:1,2013-01-01T21:30:00Z,30.2583,-88.2131,17.11,1111122 
DISL,ioos:station:DISL:KATA:1,2013-01-01T22:00:00Z,30.2583,-88.2131,16.81,1111122 
DISL,ioos:station:DISL:KATA:1,2013-01-01T22:30:00Z,30.2583,-88.2131,16.58,1111122 
DISL,ioos:station:DISL:KATA:1,2013-01-01T23:00:00Z,30.2583,-88.2131,16.61,1111122 
DISL,ioos:station:DISL:KATA:1,2013-01-01T23:30:00Z,30.2583,-88.2131,16.34,1111122 
DISL,ioos:station:DISL:KATA:1,2013-01-02T00:00:00Z,30.2583,-88.2131,16.65,1111122 
DISL,ioos:station:DISL:KATA:1,2013-01-02T00:30:00Z,30.2583,-88.2131,16.41,1111122 
DISL,ioos:station:DISL:KATA:1,2013-01-02T01:00:00Z,30.2583,-88.2131,16.41,1111122 
DISL,ioos:station:DISL:KATA:1,2013-01-02T01:30:00Z,30.2583,-88.2131,16.72,1111122 
DISL,ioos:station:DISL:KATA:1,2013-01-02T02:00:00Z,30.2583,-88.2131,16.58,1111122 
DISL,ioos:station:DISL:KATA:1,2013-01-02T02:30:00Z,30.2583,-88.2131,16.07,1111122 
DISL,ioos:station:DISL:KATA:1,2013-01-02T03:00:00Z,30.2583,-88.2131,14.99,1111122 
DISL,ioos:station:DISL:KATA:1,2013-01-02T03:30:00Z,30.2583,-88.2131,14.65,1111122 
DISL,ioos:station:DISL:KATA:1,2013-01-02T04:00:00Z,30.2583,-88.2131,15.1,1111122 
DISL,ioos:station:DISL:KATA:1,2013-01-02T04:30:00Z,30.2583,-88.2131,14.16,1111122 
DISL,ioos:station:DISL:KATA:1,2013-01-02T05:00:00Z,30.2583,-88.2131,13.85,1111122 
DISL,ioos:station:DISL:KATA:1,2013-01-02T05:30:00Z,30.2583,-88.2131,13.78,1111122 
DISL,ioos:station:DISL:KATA:1,2013-01-02T06:00:00Z,30.2583,-88.2131,13.34,1111122 
DISL,ioos:station:DISL:KATA:1,2013-01-02T06:30:00Z,30.2583,-88.2131,13.18,1111122 
DISL,ioos:station:DISL:KATA:1,2013-01-02T07:00:00Z,30.2583,-88.2131,12.91,1111122 
DISL,ioos:station:DISL:KATA:1,2013-01-02T07:30:00Z,30.2583,-88.2131,12.74,1111122 
DISL,ioos:station:DISL:KATA:1,2013-01-02T08:00:00Z,30.2583,-88.2131,12.88,1111122 
DISL,ioos:station:DISL:KATA:1,2013-01-02T08:30:00Z,30.2583,-88.2131,12.57,1111122 
DISL,ioos:station:DISL:KATA:1,2013-01-02T09:00:00Z,30.2583,-88.2131,12.33,1111122 
DISL,ioos:station:DISL:KATA:1,2013-01-02T09:30:00Z,30.2583,-88.2131,12.16,1111122 
DISL,ioos:station:DISL:KATA:1,2013-01-02T10:00:00Z,30.2583,-88.2131,11.89,1111122 
DISL,ioos:station:DISL:KATA:1,2013-01-02T10:30:00Z,30.2583,-88.2131,11.66,1111122 
DISL,ioos:station:DISL:KATA:1,2013-01-02T11:00:00Z,30.2583,-88.2131,11.66,1111122 
DISL,ioos:station:DISL:KATA:1,2013-01-02T11:30:00Z,30.2583,-88.2131,11.53,1111122 
DISL,ioos:station:DISL:KATA:1,2013-01-02T12:00:00Z,30.2583,-88.2131,11.29,1111122 
DISL,ioos:station:DISL:KATA:1,2013-01-02T12:30:00Z,30.2583,-88.2131,11.12,1111122 
DISL,ioos:station:DISL:KATA:1,2013-01-02T13:00:00Z,30.2583,-88.2131,11.09,1111122 
DISL,ioos:station:DISL:KATA:1,2013-01-02T13:30:00Z,30.2583,-88.2131,10.85,1111122 
DISL,ioos:station:DISL:KATA:1,2013-01-02T14:00:00Z,30.2583,-88.2131,10.78,1111122 
DISL,ioos:station:DISL:KATA:1,2013-01-02T14:30:00Z,30.2583,-88.2131,10.85,1111122 
DISL,ioos:station:DISL:KATA:1,2013-01-02T15:00:00Z,30.2583,-88.2131,10.64,1111122 
DISL,ioos:station:DISL:KATA:1,2013-01-02T15:30:00Z,30.2583,-88.2131,10.68,1111122 
DISL,ioos:station:DISL:KATA:1,2013-01-02T16:00:00Z,30.2583,-88.2131,10.51,1111122 
DISL,ioos:station:DISL:KATA:1,2013-01-02T16:30:00Z,30.2583,-88.2131,10.71,1111122 
DISL,ioos:station:DISL:KATA:1,2013-01-02T17:00:00Z,30.2583,-88.2131,10.58,1111122 
DISL,ioos:station:DISL:KATA:1,2013-01-02T17:30:00Z,30.2583,-88.2131,10.54,1111122 
DISL,ioos:station:DISL:KATA:1,2013-01-02T18:00:00Z,30.2583,-88.2131,10.78,1111122 
DISL,ioos:station:DISL:KATA:1,2013-01-02T18:30:00Z,30.2583,-88.2131,10.88,1111122 
DISL,ioos:station:DISL:KATA:1,2013-01-02T19:00:00Z,30.2583,-88.2131,10.85,1111122 
DISL,ioos:station:DISL:KATA:1,2013-01-02T19:30:00Z,30.2583,-88.2131,10.78,1111122 
DISL,ioos:station:DISL:KATA:1,2013-01-02T20:00:00Z,30.2583,-88.2131,11.02,1111122 
DISL,ioos:station:DISL:KATA:1,2013-01-02T20:30:00Z,30.2583,-88.2131,11.02,1111122 
DISL,ioos:station:DISL:KATA:1,2013-01-02T21:00:00Z,30.2583,-88.2131,10.64,1111122 
DISL,ioos:station:DISL:KATA:1,2013-01-02T21:30:00Z,30.2583,-88.2131,10.68,1111122 
DISL,ioos:station:DISL:KATA:1,2013-01-02T22:00:00Z,30.2583,-88.2131,10.64,1111122 
DISL,ioos:station:DISL:KATA:1,2013-01-02T22:30:00Z,30.2583,-88.2131,10.81,1111122 
DISL,ioos:station:DISL:KATA:1,2013-01-02T23:00:00Z,30.2583,-88.2131,10.51,1111122 
DISL,ioos:station:DISL:KATA:1,2013-01-02T23:30:00Z,30.2583,-88.2131,10.2,1111122 
DISL,ioos:station:DISL:KATA:1,2013-01-03T00:00:00Z,30.2583,-88.2131,10.03,1111122 
DISL,ioos:station:DISL:KATA:1,2013-01-03T00:30:00Z,30.2583,-88.2131,9.83,1111122 
DISL,ioos:station:DISL:KATA:1,2013-01-03T01:00:00Z,30.2583,-88.2131,9.76,1111122 
DISL,ioos:station:DISL:KATA:1,2013-01-03T01:30:00Z,30.2583,-88.2131,9.7,1111122 
DISL,ioos:station:DISL:KATA:1,2013-01-03T02:00:00Z,30.2583,-88.2131,9.36,1111122 
DISL,ioos:station:DISL:KATA:1,2013-01-03T02:30:00Z,30.2583,-88.2131,9.32,1111122 
DISL,ioos:station:DISL:KATA:1,2013-01-03T03:00:00Z,30.2583,-88.2131,8.98,1111122 
DISL,ioos:station:DISL:KATA:1,2013-01-03T03:30:00Z,30.2583,-88.2131,8.92,1111122 
DISL,ioos:station:DISL:KATA:1,2013-01-03T04:00:00Z,30.2583,-88.2131,8.72,1111122 
DISL,ioos:station:DISL:KATA:1,2013-01-03T04:30:00Z,30.2583,-88.2131,8.59,1111122 
DISL,ioos:station:DISL:KATA:1,2013-01-03T05:00:00Z,30.2583,-88.2131,8.42,1111122 
DISL,ioos:station:DISL:KATA:1,2013-01-03T05:30:00Z,30.2583,-88.2131,7.946,1111122 
DISL,ioos:station:DISL:KATA:1,2013-01-03T06:00:00Z,30.2583,-88.2131,7.606,1111122 
DISL,ioos:station:DISL:KATA:1,2013-01-03T06:30:00Z,30.2583,-88.2131,7.267,1111122 
DISL,ioos:station:DISL:KATA:1,2013-01-03T07:00:00Z,30.2583,-88.2131,7.201,1111122 
DISL,ioos:station:DISL:KATA:1,2013-01-03T07:30:00Z,30.2583,-88.2131,6.866,1111122 
DISL,ioos:station:DISL:KATA:1,2013-01-03T08:00:00Z,30.2583,-88.2131,6.867,1111122 
DISL,ioos:station:DISL:KATA:1,2013-01-03T08:30:00Z,30.2583,-88.2131,6.527,1111122 
DISL,ioos:station:DISL:KATA:1,2013-01-03T09:00:00Z,30.2583,-88.2131,6.462,1111122 
DISL,ioos:station:DISL:KATA:1,2013-01-03T09:30:00Z,30.2583,-88.2131,6.262,1111122 
DISL,ioos:station:DISL:KATA:1,2013-01-03T10:00:00Z,30.2583,-88.2131,6.229,1111122 
DISL,ioos:station:DISL:KATA:1,2013-01-03T10:30:00Z,30.2583,-88.2131,6.637,1111122 
DISL,ioos:station:DISL:KATA:1,2013-01-03T11:00:00Z,30.2583,-88.2131,6.128,1111122 
DISL,ioos:station:DISL:KATA:1,2013-01-03T11:30:00Z,30.2583,-88.2131,6.332,1111122 
DISL,ioos:station:DISL:KATA:1,2013-01-03T12:00:00Z,30.2583,-88.2131,5.958,1111122 
DISL,ioos:station:DISL:KATA:1,2013-01-03T12:30:00Z,30.2583,-88.2131,5.754,1111122 
DISL,ioos:station:DISL:KATA:1,2013-01-03T13:00:00Z,30.2583,-88.2131,6.06,1111122 
DISL,ioos:station:DISL:KATA:1,2013-01-03T13:30:00Z,30.2583,-88.2131,5.686,1111122 
DISL,ioos:station:DISL:KATA:1,2013-01-03T14:00:00Z,30.2583,-88.2131,5.754,1111122 
DISL,ioos:station:DISL:KATA:1,2013-01-03T14:30:00Z,30.2583,-88.2131,5.584,1111122 
DISL,ioos:station:DISL:KATA:1,2013-01-03T15:00:00Z,30.2583,-88.2131,6.128,1111122 
DISL,ioos:station:DISL:KATA:1,2013-01-03T15:30:00Z,30.2583,-88.2131,5.856,1111122 
DISL,ioos:station:DISL:KATA:1,2013-01-03T16:00:00Z,30.2583,-88.2131,5.923,1111122 
DISL,ioos:station:DISL:KATA:1,2013-01-03T16:30:00Z,30.2583,-88.2131,6.054,1111122 
DISL,ioos:station:DISL:KATA:1,2013-01-03T17:00:00Z,30.2583,-88.2131,5.848,1111122 
DISL,ioos:station:DISL:KATA:1,2013-01-03T17:30:00Z,30.2583,-88.2131,5.814,1111122 
DISL,ioos:station:DISL:KATA:1,2013-01-03T18:00:00Z,30.2583,-88.2131,6.018,1111122 
DISL,ioos:station:DISL:KATA:1,2013-01-03T18:30:00Z,30.2583,-88.2131,6.391,1111122 
DISL,ioos:station:DISL:KATA:1,2013-01-03T19:00:00Z,30.2583,-88.2131,6.525,1111122 
DISL,ioos:station:DISL:KATA:1,2013-01-03T19:30:00Z,30.2583,-88.2131,6.896,1111122 
DISL,ioos:station:DISL:KATA:1,2013-01-03T20:00:00Z,30.2583,-88.2131,7.267,1111122 
DISL,ioos:station:DISL:KATA:1,2013-01-03T20:30:00Z,30.2583,-88.2131,7.776,1111122 
DISL,ioos:station:DISL:KATA:1,2013-01-03T21:00:00Z,30.2583,-88.2131,8.05,1111122 
DISL,ioos:station:DISL:KATA:1,2013-01-03T21:30:00Z,30.2583,-88.2131,8.46,1111122 
DISL,ioos:station:DISL:KATA:1,2013-01-03T22:00:00Z,30.2583,-88.2131,8.29,1111122 
DISL,ioos:station:DISL:KATA:1,2013-01-03T22:30:00Z,30.2583,-88.2131,8.56,1111122 
DISL,ioos:station:DISL:KATA:1,2013-01-03T23:00:00Z,30.2583,-88.2131,8.18,1111122 
DISL,ioos:station:DISL:KATA:1,2013-01-03T23:30:00Z,30.2583,-88.2131,8.12,1111122 
DISL,ioos:station:DISL:KATA:1,2013-01-04T00:00:00Z,30.2583,-88.2131,8.01,1111122 
DISL,ioos:station:DISL:KATA:1,2013-01-04T00:30:00Z,30.2583,-88.2131,7.708,1111122 
DISL,ioos:station:DISL:KATA:1,2013-01-04T01:00:00Z,30.2583,-88.2131,7.44,1111122 
DISL,ioos:station:DISL:KATA:1,2013-01-04T01:30:00Z,30.2583,-88.2131,7.409,1111122 
DISL,ioos:station:DISL:KATA:1,2013-01-04T02:00:00Z,30.2583,-88.2131,7.139,1111122 
DISL,ioos:station:DISL:KATA:1,2013-01-04T02:30:00Z,30.2583,-88.2131,6.664,1111122 
DISL,ioos:station:DISL:KATA:1,2013-01-04T03:00:00Z,30.2583,-88.2131,6.396,1111122 
DISL,ioos:station:DISL:KATA:1,2013-01-04T03:30:00Z,30.2583,-88.2131,6.433,1111122 
DISL,ioos:station:DISL:KATA:1,2013-01-04T04:00:00Z,30.2583,-88.2131,6.365,1111122 
DISL,ioos:station:DISL:KATA:1,2013-01-04T04:30:00Z,30.2583,-88.2131,6.128,1111122 
DISL,ioos:station:DISL:KATA:1,2013-01-04T05:00:00Z,30.2583,-88.2131,6.026,1111122 
DISL,ioos:station:DISL:KATA:1,2013-01-04T05:30:00Z,30.2583,-88.2131,5.72,1111122 
DISL,ioos:station:DISL:KATA:1,2013-01-04T06:00:00Z,30.2583,-88.2131,5.652,1111122 
DISL,ioos:station:DISL:KATA:1,2013-01-04T06:30:00Z,30.2583,-88.2131,5.211,1111122 
DISL,ioos:station:DISL:KATA:1,2013-01-04T07:00:00Z,30.2583,-88.2131,5.28,1111122 
DISL,ioos:station:DISL:KATA:1,2013-01-04T07:30:00Z,30.2583,-88.2131,5.282,1111122 
DISL,ioos:station:DISL:KATA:1,2013-01-04T08:00:00Z,30.2583,-88.2131,5.585,1111122 
DISL,ioos:station:DISL:KATA:1,2013-01-04T08:30:00Z,30.2583,-88.2131,5.041,1111122 
DISL,ioos:station:DISL:KATA:1,2013-01-04T09:00:00Z,30.2583,-88.2131,4.77,1111122 
DISL,ioos:station:DISL:KATA:1,2013-01-04T09:30:00Z,30.2583,-88.2131,4.537,1111122 
DISL,ioos:station:DISL:KATA:1,2013-01-04T10:00:00Z,30.2583,-88.2131,4.368,1111122 
DISL,ioos:station:DISL:KATA:1,2013-01-04T10:30:00Z,30.2583,-88.2131,4.47,1111122 
DISL,ioos:station:DISL:KATA:1,2013-01-04T11:00:00Z,30.2583,-88.2131,4.504,1111122 
DISL,ioos:station:DISL:KATA:1,2013-01-04T11:30:00Z,30.2583,-88.2131,4.91,1111122 
DISL,ioos:station:DISL:KATA:1,2013-01-04T12:00:00Z,30.2583,-88.2131,5.184,1111122 
DISL,ioos:station:DISL:KATA:1,2013-01-04T12:30:00Z,30.2583,-88.2131,5.081,1111122 
DISL,ioos:station:DISL:KATA:1,2013-01-04T13:00:00Z,30.2583,-88.2131,5.795,1111122 
DISL,ioos:station:DISL:KATA:1,2013-01-04T13:30:00Z,30.2583,-88.2131,5.789,1111122 
DISL,ioos:station:DISL:KATA:1,2013-01-04T14:00:00Z,30.2583,-88.2131,5.788,1111122 
DISL,ioos:station:DISL:KATA:1,2013-01-04T14:30:00Z,30.2583,-88.2131,5.414,1111122 
DISL,ioos:station:DISL:KATA:1,2013-01-04T15:00:00Z,30.2583,-88.2131,6.128,1111122 
DISL,ioos:station:DISL:KATA:1,2013-01-04T15:30:00Z,30.2583,-88.2131,6.766,1111122 
DISL,ioos:station:DISL:KATA:1,2013-01-04T16:00:00Z,30.2583,-88.2131,7.708,1111122 
DISL,ioos:station:DISL:KATA:1,2013-01-04T16:30:00Z,30.2583,-88.2131,7.838,1111122 
DISL,ioos:station:DISL:KATA:1,2013-01-04T17:00:00Z,30.2583,-88.2131,8.24,1111122 
DISL,ioos:station:DISL:KATA:1,2013-01-04T17:30:00Z,30.2583,-88.2131,8.78,1111122 
DISL,ioos:station:DISL:KATA:1,2013-01-04T18:00:00Z,30.2583,-88.2131,10.1,1111122 
DISL,ioos:station:DISL:KATA:1,2013-01-04T18:30:00Z,30.2583,-88.2131,10.54,1111122 
DISL,ioos:station:DISL:KATA:1,2013-01-04T19:00:00Z,30.2583,-88.2131,10.51,1111122 
DISL,ioos:station:DISL:KATA:1,2013-01-04T19:30:00Z,30.2583,-88.2131,10.92,1111122 
DISL,ioos:station:DISL:KATA:1,2013-01-04T20:00:00Z,30.2583,-88.2131,11.46,1111122 
DISL,ioos:station:DISL:KATA:1,2013-01-04T20:30:00Z,30.2583,-88.2131,11.79,1111122 
DISL,ioos:station:DISL:KATA:1,2013-01-04T21:00:00Z,30.2583,-88.2131,12.44,1111122 
DISL,ioos:station:DISL:KATA:1,2013-01-04T21:30:00Z,30.2583,-88.2131,12.13,1111122 
DISL,ioos:station:DISL:KATA:1,2013-01-04T22:00:00Z,30.2583,-88.2131,11.82,1111122 
DISL,ioos:station:DISL:KATA:1,2013-01-04T22:30:00Z,30.2583,-88.2131,11.9,1111122 
DISL,ioos:station:DISL:KATA:1,2013-01-04T23:00:00Z,30.2583,-88.2131,11.97,1111122 
DISL,ioos:station:DISL:KATA:1,2013-01-04T23:30:00Z,30.2583,-88.2131,11.43,1111122 
DISL,ioos:station:DISL:KATA:1,2013-01-05T00:00:00Z,30.2583,-88.2131,11.36,1111122 
DISL,ioos:station:DISL:KATA:1,2013-01-05T00:30:00Z,30.2583,-88.2131,11.12,1111122 
DISL,ioos:station:DISL:KATA:1,2013-01-05T01:00:00Z,30.2583,-88.2131,10.95,1111122 
DISL,ioos:station:DISL:KATA:1,2013-01-05T01:30:00Z,30.2583,-88.2131,10.85,1111122 
DISL,ioos:station:DISL:KATA:1,2013-01-05T02:00:00Z,30.2583,-88.2131,10.58,1111122 
DISL,ioos:station:DISL:KATA:1,2013-01-05T02:30:00Z,30.2583,-88.2131,10.44,1111122 
DISL,ioos:station:DISL:KATA:1,2013-01-05T03:00:00Z,30.2583,-88.2131,10.27,1111122 
DISL,ioos:station:DISL:KATA:1,2013-01-05T03:30:00Z,30.2583,-88.2131,10.1,1111122 
DISL,ioos:station:DISL:KATA:1,2013-01-05T04:00:00Z,30.2583,-88.2131,9.73,1111122 
DISL,ioos:station:DISL:KATA:1,2013-01-05T04:30:00Z,30.2583,-88.2131,9.43,1111122 
DISL,ioos:station:DISL:KATA:1,2013-01-05T05:00:00Z,30.2583,-88.2131,9.16,1111122 
DISL,ioos:station:DISL:KATA:1,2013-01-05T05:30:00Z,30.2583,-88.2131,8.93,1111122 
DISL,ioos:station:DISL:KATA:1,2013-01-05T06:00:00Z,30.2583,-88.2131,9.1,1111122 
DISL,ioos:station:DISL:KATA:1,2013-01-05T06:30:00Z,30.2583,-88.2131,9.41,1111122 
DISL,ioos:station:DISL:KATA:1,2013-01-05T07:00:00Z,30.2583,-88.2131,9.34,1111122 
DISL,ioos:station:DISL:KATA:1,2013-01-05T07:30:00Z,30.2583,-88.2131,9.2,1111122 
DISL,ioos:station:DISL:KATA:1,2013-01-05T08:00:00Z,30.2583,-88.2131,9.27,1111122 
DISL,ioos:station:DISL:KATA:1,2013-01-05T08:30:00Z,30.2583,-88.2131,8.49,1111122 
DISL,ioos:station:DISL:KATA:1,2013-01-05T09:00:00Z,30.2583,-88.2131,8.32,1111122 
DISL,ioos:station:DISL:KATA:1,2013-01-05T09:30:00Z,30.2583,-88.2131,8.79,1111122 
DISL,ioos:station:DISL:KATA:1,2013-01-05T10:00:00Z,30.2583,-88.2131,9.3,1111122 
DISL,ioos:station:DISL:KATA:1,2013-01-05T10:30:00Z,30.2583,-88.2131,9.17,1111122 
DISL,ioos:station:DISL:KATA:1,2013-01-05T11:00:00Z,30.2583,-88.2131,9.07,1111122 
DISL,ioos:station:DISL:KATA:1,2013-01-05T11:30:00Z,30.2583,-88.2131,9.07,1111122 
DISL,ioos:station:DISL:KATA:1,2013-01-05T12:00:00Z,30.2583,-88.2131,9.0,1111122 
DISL,ioos:station:DISL:KATA:1,2013-01-05T12:30:00Z,30.2583,-88.2131,8.86,1111122 
DISL,ioos:station:DISL:KATA:1,2013-01-05T13:00:00Z,30.2583,-88.2131,9.13,1111122 
DISL,ioos:station:DISL:KATA:1,2013-01-05T13:30:00Z,30.2583,-88.2131,9.24,1111122 
DISL,ioos:station:DISL:KATA:1,2013-01-05T14:00:00Z,30.2583,-88.2131,9.2,1111122 
DISL,ioos:station:DISL:KATA:1,2013-01-05T14:30:00Z,30.2583,-88.2131,8.62,1111122 
DISL,ioos:station:DISL:KATA:1,2013-01-05T15:00:00Z,30.2583,-88.2131,8.76,1111122 
DISL,ioos:station:DISL:KATA:1,2013-01-05T15:30:00Z,30.2583,-88.2131,8.61,1111122 
DISL,ioos:station:DISL:KATA:1,2013-01-05T16:00:00Z,30.2583,-88.2131,8.81,1111122 
DISL,ioos:station:DISL:KATA:1,2013-01-05T16:30:00Z,30.2583,-88.2131,8.98,1111122 
DISL,ioos:station:DISL:KATA:1,2013-01-05T17:00:00Z,30.2583,-88.2131,9.73,1111122 
DISL,ioos:station:DISL:KATA:1,2013-01-05T17:30:00Z,30.2583,-88.2131,10.17,1111122 
DISL,ioos:station:DISL:KATA:1,2013-01-05T18:00:00Z,30.2583,-88.2131,10.78,1111122 
DISL,ioos:station:DISL:KATA:1,2013-01-05T18:30:00Z,30.2583,-88.2131,11.89,1111122 
DISL,ioos:station:DISL:KATA:1,2013-01-05T19:00:00Z,30.2583,-88.2131,12.1,1111122 
DISL,ioos:station:DISL:KATA:1,2013-01-05T19:30:00Z,30.2583,-88.2131,12.81,1111122 
DISL,ioos:station:DISL:KATA:1,2013-01-05T20:00:00Z,30.2583,-88.2131,13.18,1111122 
DISL,ioos:station:DISL:KATA:1,2013-01-05T20:30:00Z,30.2583,-88.2131,13.38,1111122 
DISL,ioos:station:DISL:KATA:1,2013-01-05T21:00:00Z,30.2583,-88.2131,12.64,1111122 
DISL,ioos:station:DISL:KATA:1,2013-01-05T21:30:00Z,30.2583,-88.2131,12.98,1111122 
DISL,ioos:station:DISL:KATA:1,2013-01-05T22:00:00Z,30.2583,-88.2131,11.88,1111122 
DISL,ioos:station:DISL:KATA:1,2013-01-05T22:30:00Z,30.2583,-88.2131,12.43,1111122 
DISL,ioos:station:DISL:KATA:1,2013-01-05T23:00:00Z,30.2583,-88.2131,12.68,1111122 
DISL,ioos:station:DISL:KATA:1,2013-01-05T23:30:00Z,30.2583,-88.2131,12.38,1111122 
DISL,ioos:station:DISL:KATA:1,2013-01-07T14:30:00Z,30.2583,-88.2131,8.6,11111222 
DISL,ioos:station:DISL:KATA:1,2013-01-07T15:00:00Z,30.2583,-88.2131,8.8,11111222 
DISL,ioos:station:DISL:KATA:1,2013-01-07T15:30:00Z,30.2583,-88.2131,8.6,11111222 
DISL,ioos:station:DISL:KATA:1,2013-01-07T16:00:00Z,30.2583,-88.2131,8.8,11111222 
DISL,ioos:station:DISL:KATA:1,2013-01-07T16:30:00Z,30.2583,-88.2131,9.0,11111222 
DISL,ioos:station:DISL:KATA:1,2013-01-07T17:00:00Z,30.2583,-88.2131,9.7,11111222 
DISL,ioos:station:DISL:KATA:1,2013-01-07T17:30:00Z,30.2583,-88.2131,10.2,11111222 
DISL,ioos:station:DISL:KATA:1,2013-01-07T18:00:00Z,30.2583,-88.2131,10.8,11111222 
DISL,ioos:station:DISL:KATA:1,2013-01-07T18:30:00Z,30.2583,-88.2131,11.9,11111222 
DISL,ioos:station:DISL:KATA:1,2013-01-07T19:00:00Z,30.2583,-88.2131,12.1,11111222 
DISL,ioos:station:DISL:KATA:1,2013-01-07T19:30:00Z,30.2583,-88.2131,12.8,11111222 
DISL,ioos:station:DISL:KATA:1,2013-01-07T20:00:00Z,30.2583,-88.2131,13.2,11111222 
DISL,ioos:station:DISL:KATA:1,2013-01-07T20:30:00Z,30.2583,-88.2131,13.4,11111222 
DISL,ioos:station:DISL:KATA:1,2013-01-07T21:00:00Z,30.2583,-88.2131,12.6,11111222 
DISL,ioos:station:DISL:KATA:1,2013-01-07T21:30:00Z,30.2583,-88.2131,13.0,11111222 
DISL,ioos:station:DISL:KATA:1,2013-01-07T22:00:00Z,30.2583,-88.2131,11.9,11111222 
DISL,ioos:station:DISL:KATA:1,2013-01-07T22:30:00Z,30.2583,-88.2131,12.4,11111222 
DISL,ioos:station:DISL:KATA:1,2013-01-07T23:00:00Z,30.2583,-88.2131,12.7,11111222 
DISL,ioos:station:DISL:KATA:1,2013-01-07T23:30:00Z,30.2583,-88.2131,12.4,11111222 
DISL,ioos:station:DISL:KATA:1,2013-01-08T00:00:00Z,30.2583,-88.2131,12.41,1111122 
DISL,ioos:station:DISL:KATA:1,2013-01-08T00:30:00Z,30.2583,-88.2131,12.48,1111122 
DISL,ioos:station:DISL:KATA:1,2013-01-08T01:00:00Z,30.2583,-88.2131,12.75,1111122 
DISL,ioos:station:DISL:KATA:1,2013-01-08T01:30:00Z,30.2583,-88.2131,12.31,1111122 
DISL,ioos:station:DISL:KATA:1,2013-01-08T02:00:00Z,30.2583,-88.2131,12.34,1111122 
DISL,ioos:station:DISL:KATA:1,2013-01-08T02:30:00Z,30.2583,-88.2131,11.93,1111122 
DISL,ioos:station:DISL:KATA:1,2013-01-08T03:00:00Z,30.2583,-88.2131,11.49,1111122 
DISL,ioos:station:DISL:KATA:1,2013-01-08T03:30:00Z,30.2583,-88.2131,11.63,1111122 
DISL,ioos:station:DISL:KATA:1,2013-01-08T04:00:00Z,30.2583,-88.2131,11.9,1111122 
DISL,ioos:station:DISL:KATA:1,2013-01-08T04:30:00Z,30.2583,-88.2131,11.56,1111122 
DISL,ioos:station:DISL:KATA:1,2013-01-08T05:00:00Z,30.2583,-88.2131,11.29,1111122 
DISL,ioos:station:DISL:KATA:1,2013-01-08T05:30:00Z,30.2583,-88.2131,11.32,1111122 
DISL,ioos:station:DISL:KATA:1,2013-01-08T06:00:00Z,30.2583,-88.2131,11.05,1111122 
DISL,ioos:station:DISL:KATA:1,2013-01-08T06:30:00Z,30.2583,-88.2131,11.05,1111122 
DISL,ioos:station:DISL:KATA:1,2013-01-08T07:00:00Z,30.2583,-88.2131,10.95,1111122 
DISL,ioos:station:DISL:KATA:1,2013-01-08T07:30:00Z,30.2583,-88.2131,10.85,1111122 
DISL,ioos:station:DISL:KATA:1,2013-01-08T08:00:00Z,30.2583,-88.2131,10.75,1111122 
DISL,ioos:station:DISL:KATA:1,2013-01-08T08:30:00Z,30.2583,-88.2131,10.68,1111122 
DISL,ioos:station:DISL:KATA:1,2013-01-08T09:00:00Z,30.2583,-88.2131,10.85,1111122 
DISL,ioos:station:DISL:KATA:1,2013-01-08T09:30:00Z,30.2583,-88.2131,10.85,1111122 
DISL,ioos:station:DISL:KATA:1,2013-01-08T10:00:00Z,30.2583,-88.2131,10.72,1111122 
DISL,ioos:station:DISL:KATA:1,2013-01-08T10:30:00Z,30.2583,-88.2131,10.65,1111122 
DISL,ioos:station:DISL:KATA:1,2013-01-08T11:00:00Z,30.2583,-88.2131,10.75,1111122 
DISL,ioos:station:DISL:KATA:1,2013-01-08T11:30:00Z,30.2583,-88.2131,10.75,1111122 
DISL,ioos:station:DISL:KATA:1,2013-01-08T12:00:00Z,30.2583,-88.2131,10.95,1111122 
DISL,ioos:station:DISL:KATA:1,2013-01-08T12:30:00Z,30.2583,-88.2131,11.02,1111122 
DISL,ioos:station:DISL:KATA:1,2013-01-08T13:00:00Z,30.2583,-88.2131,10.81,1111122 
DISL,ioos:station:DISL:KATA:1,2013-01-08T13:30:00Z,30.2583,-88.2131,10.85,1111122 
DISL,ioos:station:DISL:KATA:1,2013-01-08T14:00:00Z,30.2583,-88.2131,10.92,1111122 
DISL,ioos:station:DISL:KATA:1,2013-01-08T14:30:00Z,30.2583,-88.2131,11.09,1111122 